Time,TemperatureF,DewpointF,PressureIn,WindDirection,WindDirectionDegrees,WindSpeedMPH,WindSpeedGustMPH,Humidity,HourlyPrecipIn,Conditions,Clouds,dailyrainin,SoftwareType,DateUTC
2013-04-27 00:03:00,50.0,39.0,30.31,South,174,0.0,-999.0,65,-99.99,,,-99.99,,2013-04-27 04:03:00,
2013-04-27 00:13:00,50.0,39.0,30.31,South,174,0.0,-999.0,65,-99.99,,,-99.99,,2013-04-27 04:13:00,
2013-04-27 00:23:00,50.0,39.0,30.31,South,174,0.0,-999.0,66,-99.99,,,-99.99,,2013-04-27 04:23:00,
2013-04-27 00:33:00,49.0,38.0,30.31,South,174,0.0,-999.0,66,-99.99,,,-99.99,,2013-04-27 04:33:00,
2013-04-27 00:43:00,49.0,38.0,30.31,South,174,0.0,-999.0,66,-99.99,,,-99.99,,2013-04-27 04:43:00,
2013-04-27 00:53:00,48.0,38.0,30.32,South,174,0.0,-999.0,68,-99.99,,,-99.99,,2013-04-27 04:53:00,
2013-04-27 01:02:00,48.0,39.0,30.32,South,174,0.0,-999.0,72,-99.99,,,-99.99,,2013-04-27 05:02:00,
2013-04-27 01:12:00,48.0,39.0,30.32,South,174,0.0,-999.0,72,-99.99,,,-99.99,,2013-04-27 05:12:00,
2013-04-27 01:22:00,47.0,38.0,30.32,South,174,0.0,-999.0,71,-99.99,,,-99.99,,2013-04-27 05:22:00,
2013-04-27 01:32:00,46.0,38.0,30.32,South,174,0.0,-999.0,73,-99.99,,,-99.99,,2013-04-27 05:32:00,
2013-04-27 01:42:00,46.0,38.0,30.32,South,174,0.0,-999.0,73,-99.99,,,-99.99,,2013-04-27 05:42:00,
2013-04-27 01:52:00,46.0,38.0,30.32,South,174,0.0,-999.0,73,-99.99,,,-99.99,,2013-04-27 05:52:00,
2013-04-27 02:02:00,46.0,38.0,30.32,South,174,0.0,-999.0,74,-99.99,,,-99.99,,2013-04-27 06:02:00,
2013-04-27 02:12:00,46.0,38.0,30.32,South,174,0.0,-999.0,74,-99.99,,,-99.99,,2013-04-27 06:12:00,
2013-04-27 02:22:00,46.0,38.0,30.32,South,174,0.0,-999.0,73,-99.99,,,-99.99,,2013-04-27 06:22:00,
2013-04-27 02:32:00,47.0,39.0,30.32,South,174,0.0,-999.0,73,-99.99,,,-99.99,,2013-04-27 06:32:00,
2013-04-27 02:42:00,47.0,39.0,30.32,South,174,0.0,-999.0,73,-99.99,,,-99.99,,2013-04-27 06:42:00,
2013-04-27 02:52:00,47.0,38.0,30.31,South,174,0.0,-999.0,72,-99.99,,,-99.99,,2013-04-27 06:52:00,
2013-04-27 03:01:00,46.0,38.0,30.30,South,174,0.0,-999.0,73,-99.99,,,-99.99,,2013-04-27 07:01:00,
2013-04-27 03:11:00,46.0,38.0,30.30,South,174,0.0,-999.0,73,-99.99,,,-99.99,,2013-04-27 07:11:00,
2013-04-27 03:21:00,45.0,37.0,30.30,South,174,0.0,-999.0,74,-99.99,,,-99.99,,2013-04-27 07:21:00,
2013-04-27 03:32:00,45.0,38.0,30.30,South,174,0.0,-999.0,75,-99.99,,,-99.99,,2013-04-27 07:32:00,
2013-04-27 03:42:00,45.0,38.0,30.30,South,174,0.0,-999.0,75,-99.99,,,-99.99,,2013-04-27 07:42:00,
2013-04-27 03:52:00,45.0,38.0,30.29,South,174,0.0,-999.0,75,-99.99,,,-99.99,,2013-04-27 07:52:00,
2013-04-27 04:01:00,45.0,38.0,30.29,South,174,0.0,-999.0,75,-99.99,,,-99.99,,2013-04-27 08:01:00,
2013-04-27 04:11:00,45.0,38.0,30.29,South,174,0.0,-999.0,75,-99.99,,,-99.99,,2013-04-27 08:11:00,
2013-04-27 04:21:00,44.0,37.0,30.29,South,174,0.0,-999.0,75,-99.99,,,-99.99,,2013-04-27 08:21:00,
2013-04-27 04:33:00,44.0,37.0,30.28,South,174,0.0,-999.0,76,-99.99,,,-99.99,,2013-04-27 08:33:00,
2013-04-27 04:42:00,44.0,37.0,30.28,South,174,0.0,-999.0,76,-99.99,,,-99.99,,2013-04-27 08:42:00,
2013-04-27 04:52:00,44.0,37.0,30.28,South,174,0.0,-999.0,76,-99.99,,,-99.99,,2013-04-27 08:52:00,
2013-04-27 05:01:00,43.0,36.0,30.28,South,174,0.0,-999.0,76,-99.99,,,-99.99,,2013-04-27 09:01:00,
2013-04-27 05:11:00,43.0,36.0,30.28,South,174,0.0,-999.0,76,-99.99,,,-99.99,,2013-04-27 09:11:00,
2013-04-27 05:21:00,43.0,36.0,30.28,South,174,0.0,-999.0,76,-99.99,,,-99.99,,2013-04-27 09:21:00,
2013-04-27 05:33:00,43.0,36.0,30.28,South,174,0.0,-999.0,77,-99.99,,,-99.99,,2013-04-27 09:33:00,
2013-04-27 05:42:00,43.0,36.0,30.28,South,174,0.0,-999.0,77,-99.99,,,-99.99,,2013-04-27 09:42:00,
2013-04-27 05:53:00,42.0,36.0,30.28,South,174,0.0,-999.0,78,-99.99,,,-99.99,,2013-04-27 09:53:00,
2013-04-27 06:03:00,42.0,36.0,30.28,South,174,0.0,-999.0,79,-99.99,,,-99.99,,2013-04-27 10:03:00,
2013-04-27 06:12:00,42.0,36.0,30.28,South,174,0.0,-999.0,79,-99.99,,,-99.99,,2013-04-27 10:12:00,
2013-04-27 06:22:00,42.0,36.0,30.28,South,174,0.0,-999.0,79,-99.99,,,-99.99,,2013-04-27 10:22:00,
2013-04-27 06:32:00,42.0,36.0,30.28,South,174,0.0,-999.0,79,-99.99,,,-99.99,,2013-04-27 10:32:00,
2013-04-27 06:42:00,42.0,36.0,30.28,South,174,0.0,-999.0,79,-99.99,,,-99.99,,2013-04-27 10:42:00,
2013-04-27 06:52:00,42.0,36.0,30.29,South,174,0.0,-999.0,80,-99.99,,,-99.99,,2013-04-27 10:52:00,
2013-04-27 07:02:00,41.0,36.0,30.28,South,174,0.0,-999.0,81,-99.99,,,-99.99,,2013-04-27 11:02:00,
2013-04-27 07:12:00,41.0,36.0,30.28,South,174,0.0,-999.0,81,-99.99,,,-99.99,,2013-04-27 11:12:00,
2013-04-27 07:22:00,41.0,36.0,30.28,South,174,0.0,-999.0,81,-99.99,,,-99.99,,2013-04-27 11:22:00,
2013-04-27 07:32:00,41.0,35.0,30.29,South,174,0.0,-999.0,80,-99.99,,,-99.99,,2013-04-27 11:32:00,
2013-04-27 07:42:00,41.0,35.0,30.29,South,174,0.0,-999.0,80,-99.99,,,-99.99,,2013-04-27 11:42:00,
2013-04-27 07:52:00,42.0,37.0,30.29,South,174,0.0,-999.0,81,-99.99,,,-99.99,,2013-04-27 11:52:00,
2013-04-27 08:01:00,42.0,37.0,30.29,SSE,161,0.0,-999.0,81,-99.99,,,-99.99,,2013-04-27 12:01:00,
2013-04-27 08:11:00,42.0,37.0,30.29,SSE,161,0.0,-999.0,81,-99.99,,,-99.99,,2013-04-27 12:11:00,
2013-04-27 08:22:00,43.0,37.0,30.28,SSE,159,0.0,-999.0,80,-99.99,,,-99.99,,2013-04-27 12:22:00,
2013-04-27 08:32:00,45.0,38.0,30.28,SSE,159,0.0,-999.0,77,-99.99,,,-99.99,,2013-04-27 12:32:00,
2013-04-27 08:42:00,45.0,38.0,30.28,SSE,159,0.0,-999.0,77,-99.99,,,-99.99,,2013-04-27 12:42:00,
2013-04-27 08:52:00,47.0,39.0,30.28,SE,146,0.0,-999.0,75,-99.99,,,-99.99,,2013-04-27 12:52:00,
2013-04-27 09:02:00,48.0,39.0,30.28,SE,142,0.0,-999.0,71,-99.99,,,-99.99,,2013-04-27 13:02:00,
2013-04-27 09:11:00,48.0,39.0,30.28,SE,142,0.0,-999.0,71,-99.99,,,-99.99,,2013-04-27 13:11:00,
2013-04-27 09:21:00,49.0,39.0,30.28,SE,145,1.0,-999.0,67,-99.99,,,-99.99,,2013-04-27 13:21:00,
2013-04-27 09:32:00,50.0,39.0,30.28,SSE,150,1.0,-999.0,65,-99.99,,,-99.99,,2013-04-27 13:32:00,
2013-04-27 09:42:00,50.0,39.0,30.28,SSE,150,1.0,-999.0,65,-99.99,,,-99.99,,2013-04-27 13:42:00,
2013-04-27 09:52:00,52.0,39.0,30.27,SW,221,0.0,-999.0,61,-99.99,,,-99.99,,2013-04-27 13:52:00,
2013-04-27 10:02:00,53.0,39.0,30.27,SW,216,1.0,-999.0,59,-99.99,,,-99.99,,2013-04-27 14:02:00,
2013-04-27 10:11:00,53.0,39.0,30.27,SW,216,1.0,-999.0,59,-99.99,,,-99.99,,2013-04-27 14:11:00,
2013-04-27 10:21:00,55.0,39.0,30.26,SSE,163,1.0,-999.0,55,-99.99,,,-99.99,,2013-04-27 14:21:00,
2013-04-27 10:32:00,56.0,39.0,30.26,SSW,205,1.0,-999.0,53,-99.99,,,-99.99,,2013-04-27 14:32:00,
2013-04-27 10:42:00,56.0,39.0,30.26,SSW,205,1.0,-999.0,53,-99.99,,,-99.99,,2013-04-27 14:42:00,
2013-04-27 10:52:00,57.0,40.0,30.25,SE,130,3.0,-999.0,53,-99.99,,,-99.99,,2013-04-27 14:52:00,
2013-04-27 11:01:00,58.0,41.0,30.25,SSW,205,1.0,-999.0,53,-99.99,,,-99.99,,2013-04-27 15:01:00,
2013-04-27 11:12:00,58.0,41.0,30.25,SSW,205,1.0,-999.0,53,-99.99,,,-99.99,,2013-04-27 15:12:00,
2013-04-27 11:22:00,58.0,39.0,30.24,SE,139,2.0,-999.0,50,-99.99,,,-99.99,,2013-04-27 15:22:00,
2013-04-27 11:33:00,59.0,38.0,30.23,SE,138,3.0,-999.0,45,-99.99,,,-99.99,,2013-04-27 15:33:00,
2013-04-27 11:42:00,59.0,38.0,30.23,SE,138,3.0,-999.0,45,-99.99,,,-99.99,,2013-04-27 15:42:00,
2013-04-27 11:53:00,60.0,40.0,30.24,SE,131,2.0,-999.0,48,-99.99,,,-99.99,,2013-04-27 15:53:00,
2013-04-27 12:03:00,60.0,37.0,30.23,East,97,5.0,-999.0,43,-99.99,,,-99.99,,2013-04-27 16:03:00,
2013-04-27 12:13:00,60.0,37.0,30.23,East,97,5.0,-999.0,43,-99.99,,,-99.99,,2013-04-27 16:13:00,
2013-04-27 12:22:00,61.0,39.0,30.23,SSE,154,3.0,-999.0,44,-99.99,,,-99.99,,2013-04-27 16:22:00,
2013-04-27 12:33:00,61.0,40.0,30.23,SE,138,5.0,-999.0,45,-99.99,,,-99.99,,2013-04-27 16:33:00,
2013-04-27 12:42:00,61.0,40.0,30.23,SE,138,5.0,-999.0,45,-99.99,,,-99.99,,2013-04-27 16:42:00,
2013-04-27 12:53:00,61.0,38.0,30.22,SSE,150,6.0,-999.0,42,-99.99,,,-99.99,,2013-04-27 16:53:00,
2013-04-27 13:02:00,62.0,39.0,30.22,South,171,6.0,-999.0,43,-99.99,,,-99.99,,2013-04-27 17:02:00,
2013-04-27 13:12:00,62.0,39.0,30.22,South,171,6.0,-999.0,43,-99.99,,,-99.99,,2013-04-27 17:12:00,
2013-04-27 13:22:00,62.0,39.0,30.21,SE,135,3.0,-999.0,42,-99.99,,,-99.99,,2013-04-27 17:22:00,
2013-04-27 13:32:00,63.0,38.0,30.21,SSE,161,5.0,-999.0,40,-99.99,,,-99.99,,2013-04-27 17:32:00,
2013-04-27 13:42:00,63.0,38.0,30.21,SSE,161,5.0,-999.0,40,-99.99,,,-99.99,,2013-04-27 17:42:00,
2013-04-27 13:53:00,63.0,38.0,30.20,SSE,153,6.0,-999.0,40,-99.99,,,-99.99,,2013-04-27 17:53:00,
2013-04-27 14:02:00,63.0,38.0,30.20,SE,143,6.0,-999.0,39,-99.99,,,-99.99,,2013-04-27 18:02:00,
2013-04-27 14:12:00,63.0,38.0,30.20,SE,143,6.0,-999.0,39,-99.99,,,-99.99,,2013-04-27 18:12:00,
2013-04-27 14:22:00,63.0,37.0,30.20,SSE,153,8.0,-999.0,38,-99.99,,,-99.99,,2013-04-27 18:22:00,
2013-04-27 14:32:00,64.0,38.0,30.18,SSE,149,6.0,-999.0,38,-99.99,,,-99.99,,2013-04-27 18:32:00,
2013-04-27 14:42:00,64.0,38.0,30.18,SSE,149,6.0,-999.0,38,-99.99,,,-99.99,,2013-04-27 18:42:00,
2013-04-27 14:52:00,64.0,40.0,30.18,South,175,7.0,-999.0,42,-99.99,,,-99.99,,2013-04-27 18:52:00,
2013-04-27 15:02:00,64.0,39.0,30.18,SSE,152,7.0,-999.0,39,-99.99,,,-99.99,,2013-04-27 19:02:00,
2013-04-27 15:11:00,64.0,39.0,30.18,SSE,152,7.0,-999.0,39,-99.99,,,-99.99,,2013-04-27 19:11:00,
2013-04-27 15:21:00,65.0,41.0,30.16,South,180,7.0,-999.0,41,-99.99,,,-99.99,,2013-04-27 19:21:00,
2013-04-27 15:32:00,65.0,39.0,30.16,SE,132,7.0,-999.0,39,-99.99,,,-99.99,,2013-04-27 19:32:00,
2013-04-27 15:42:00,65.0,39.0,30.16,SE,132,7.0,-999.0,39,-99.99,,,-99.99,,2013-04-27 19:42:00,
2013-04-27 15:53:00,65.0,41.0,30.15,South,174,7.0,-999.0,41,-99.99,,,-99.99,,2013-04-27 19:53:00,
2013-04-27 16:02:00,66.0,41.0,30.14,SE,140,5.0,-999.0,40,-99.99,,,-99.99,,2013-04-27 20:02:00,
2013-04-27 16:11:00,66.0,41.0,30.14,SE,140,5.0,-999.0,40,-99.99,,,-99.99,,2013-04-27 20:11:00,
2013-04-27 16:21:00,65.0,41.0,30.13,SSW,200,6.0,-999.0,41,-99.99,,,-99.99,,2013-04-27 20:21:00,
2013-04-27 16:32:00,66.0,43.0,30.12,SSE,157,7.0,-999.0,43,-99.99,,,-99.99,,2013-04-27 20:32:00,
2013-04-27 16:42:00,66.0,43.0,30.12,SSE,157,7.0,-999.0,43,-99.99,,,-99.99,,2013-04-27 20:42:00,
2013-04-27 16:52:00,66.0,42.0,30.11,South,184,5.0,-999.0,42,-99.99,,,-99.99,,2013-04-27 20:52:00,
2013-04-27 17:02:00,66.0,43.0,30.11,South,171,6.0,-999.0,43,-99.99,,,-99.99,,2013-04-27 21:02:00,
2013-04-27 17:12:00,66.0,43.0,30.11,South,171,6.0,-999.0,43,-99.99,,,-99.99,,2013-04-27 21:12:00,
2013-04-27 17:21:00,66.0,42.0,30.10,SSE,150,5.0,-999.0,42,-99.99,,,-99.99,,2013-04-27 21:21:00,
2013-04-27 17:33:00,66.0,42.0,30.10,ESE,113,7.0,-999.0,41,-99.99,,,-99.99,,2013-04-27 21:33:00,
2013-04-27 17:43:00,66.0,42.0,30.10,ESE,113,7.0,-999.0,41,-99.99,,,-99.99,,2013-04-27 21:43:00,
2013-04-27 17:53:00,66.0,42.0,30.09,ESE,107,6.0,-999.0,42,-99.99,,,-99.99,,2013-04-27 21:53:00,
2013-04-27 18:03:00,66.0,42.0,30.09,South,186,6.0,-999.0,42,-99.99,,,-99.99,,2013-04-27 22:03:00,
2013-04-27 18:13:00,66.0,42.0,30.09,South,186,6.0,-999.0,42,-99.99,,,-99.99,,2013-04-27 22:13:00,
2013-04-27 18:22:00,66.0,42.0,30.09,ESE,113,6.0,-999.0,42,-99.99,,,-99.99,,2013-04-27 22:22:00,
2013-04-27 18:32:00,66.0,42.0,30.09,SSE,167,4.0,-999.0,41,-99.99,,,-99.99,,2013-04-27 22:32:00,
2013-04-27 18:42:00,66.0,42.0,30.09,SSE,167,4.0,-999.0,41,-99.99,,,-99.99,,2013-04-27 22:42:00,
2013-04-27 18:53:00,66.0,43.0,30.08,South,171,6.0,-999.0,43,-99.99,,,-99.99,,2013-04-27 22:53:00,
2013-04-27 19:02:00,65.0,43.0,30.08,SE,137,4.0,-999.0,44,-99.99,,,-99.99,,2013-04-27 23:02:00,
2013-04-27 19:12:00,65.0,43.0,30.08,SE,137,4.0,-999.0,44,-99.99,,,-99.99,,2013-04-27 23:12:00,
2013-04-27 19:22:00,65.0,43.0,30.07,SE,127,5.0,-999.0,45,-99.99,,,-99.99,,2013-04-27 23:22:00,
2013-04-27 19:32:00,64.0,43.0,30.07,SSE,164,5.0,-999.0,46,-99.99,,,-99.99,,2013-04-27 23:32:00,
2013-04-27 19:42:00,64.0,43.0,30.07,SSE,164,5.0,-999.0,46,-99.99,,,-99.99,,2013-04-27 23:42:00,
2013-04-27 19:52:00,64.0,43.0,30.06,SSE,150,4.0,-999.0,47,-99.99,,,-99.99,,2013-04-27 23:52:00,
2013-04-27 20:01:00,64.0,44.0,30.06,SE,144,1.0,-999.0,48,-99.99,,,-99.99,,2013-04-28 00:01:00,
2013-04-27 20:12:00,64.0,44.0,30.06,SE,144,1.0,-999.0,48,-99.99,,,-99.99,,2013-04-28 00:12:00,
2013-04-27 20:21:00,63.0,43.0,30.06,SE,144,3.0,-999.0,48,-99.99,,,-99.99,,2013-04-28 00:21:00,
2013-04-27 20:32:00,63.0,44.0,30.05,SSE,152,2.0,-999.0,49,-99.99,,,-99.99,,2013-04-28 00:32:00,
2013-04-27 20:43:00,63.0,44.0,30.05,SSE,152,2.0,-999.0,49,-99.99,,,-99.99,,2013-04-28 00:43:00,
2013-04-27 20:52:00,62.0,44.0,30.05,SE,141,0.0,-999.0,51,-99.99,,,-99.99,,2013-04-28 00:52:00,
2013-04-27 21:02:00,62.0,44.0,30.04,SE,146,0.0,-999.0,52,-99.99,,,-99.99,,2013-04-28 01:02:00,
2013-04-27 21:11:00,61.0,44.0,30.04,SSE,160,3.0,-999.0,54,-99.99,,,-99.99,,2013-04-28 01:11:00,
2013-04-27 21:22:00,61.0,44.0,30.04,SSE,160,3.0,-999.0,54,-99.99,,,-99.99,,2013-04-28 01:22:00,
2013-04-27 21:32:00,61.0,45.0,30.04,SSE,167,1.0,-999.0,56,-99.99,,,-99.99,,2013-04-28 01:32:00,
2013-04-27 21:42:00,61.0,45.0,30.04,SSE,167,1.0,-999.0,56,-99.99,,,-99.99,,2013-04-28 01:42:00,
2013-04-27 21:52:00,60.0,46.0,30.04,SSE,156,0.0,-999.0,59,-99.99,,,-99.99,,2013-04-28 01:52:00,
2013-04-27 22:02:00,60.0,47.0,30.04,SSE,164,0.0,-999.0,61,-99.99,,,-99.99,,2013-04-28 02:02:00,
2013-04-27 22:12:00,60.0,47.0,30.04,SSE,164,0.0,-999.0,61,-99.99,,,-99.99,,2013-04-28 02:12:00,
2013-04-27 22:22:00,59.0,46.0,30.04,SSE,164,0.0,-999.0,63,-99.99,,,-99.99,,2013-04-28 02:22:00,
2013-04-27 22:32:00,59.0,47.0,30.04,SSE,164,0.0,-999.0,65,-99.99,,,-99.99,,2013-04-28 02:32:00,
2013-04-27 22:42:00,59.0,47.0,30.04,SSE,164,0.0,-999.0,65,-99.99,,,-99.99,,2013-04-28 02:42:00,
2013-04-27 22:52:00,59.0,47.0,30.05,SSW,203,2.0,-999.0,65,-99.99,,,-99.99,,2013-04-28 02:52:00,
2013-04-27 23:01:00,59.0,48.0,30.04,SSE,150,4.0,-999.0,66,-99.99,,,-99.99,,2013-04-28 03:01:00,
2013-04-27 23:11:00,59.0,48.0,30.04,SSE,150,4.0,-999.0,66,-99.99,,,-99.99,,2013-04-28 03:11:00,
2013-04-27 23:21:00,58.0,47.0,30.02,SE,140,3.0,-999.0,68,-99.99,,,-99.99,,2013-04-28 03:21:00,
2013-04-27 23:33:00,58.0,48.0,30.03,SE,142,2.0,-999.0,70,-99.99,,,-99.99,,2013-04-28 03:33:00,
2013-04-27 23:43:00,58.0,48.0,30.03,SE,142,2.0,-999.0,70,-99.99,,,-99.99,,2013-04-28 03:43:00,
2013-04-27 23:53:00,58.0,49.0,30.02,SSE,152,1.0,-999.0,71,-99.99,,,-99.99,,2013-04-28 03:53:00,